Погода в Днепропетровске

Погода в Днепропетровске : погода сейчас, прогноз погоды и архив. Всё, что Вы хотите узнать о погоде в Днепропетровске!

Хотите узнать прогноз погоды в Днепропетровске? Тогда Вам сюда: Погода в Днепропетровске

Поиск расширенной информации на нашем сайте:

Другие новости

Новости СМИ2

Главная страница сайта

Новости сайта

03.07.2017

Напоминаем, что на нашем специализированном сайте Метеоцентр.Азия вы можете получить высокодетализированные автоматические прогнозы погоды по пунктам России, СНГ и мира в авиационном формате (включающие направление и скорость ветра, видимость, явления погоды, количество и форму облачности, нижнюю и верхнюю границу облачности).

Рекомендуем: Подольск и ремонт ноутбуков Щербинка. Ремонт ноутбуков в Подольске лучшие цены в Москве.

Погода в Днепропетровске - сегодня

Время (UTC), дата Ветер
(°,м/с) 
Видим.   Явления Облачность Т
(°С)
Тd
(°С)
f(%) Тe
(°С)
Pmin
(гПа)
dP
(гПа)
Po
(мм)
O2
(г/м3)
Тmin Tmax R s Состояние
почвы
12 08.12.17 200 (Ю) 1300 м  слаб. дождь{морось}  10/10 60 м 
[Frnb|Ns]
+4 +3.8 99 +5  1016.2  -0.3  749  297           
15 08.12.17 160 (Ю) 1600 м  дымка{дождь, морось}  10/10 100 м 
[St]
+3.4 +3.2 99 +3  1016.3  0.1  749  297          затоплена
водой 
18 08.12.17 200 (Ю) 10 км  {дождь, морось}  4/4 600 м 
[Sc]
+1.4 +0.6 94 1017.1  0.6  749  300    +4.2  0.5     
21 08.12.17 180 (Ю) 10 км    ясно 
+0.7 -0.7 90 1017  -0.1  749  301           
00 09.12.17 160 (Ю) 2500 м  дымка  8/8 540 м 
[Sc]
+0.4 -0.4 94 -1  1016.4  -0.7  749  301           
03 09.12.17 140 (ЮВ) 4900 м  дымка  10/10 840 м 
[Sc]
+1.4 +0.6 94 -1  1015.2  -1.1  748  300           
06 09.12.17 170 (Ю) 3500 м  дымка  9/9 150 м 
[St]
+2.6 +1.8 94 +1  1014.3  -0.8  747  298  +0.4         
09 09.12.17 200 (Ю) 10 км  {туман}  9/9 240 м 
[St]
+4.6 +3.6 93 +2  1013.6  -0.5  747  295           
12 09.12.17 200 (Ю) 10 км  {туман}  9/9 150 м 
[St]
+6 +4.6 91 +4  1013  -0.5  746  294           
15 09.12.17 150 (ЮВ) 1600 м  дымка  9/9 360 м 
[Sc]
+5.1 +4.4 95 +5  1012.7  -0.4  746  294           
18 09.12.17 180 (Ю) 0500 м  туман  ?/?  
+6 +6 100 +5  1012  -0.6  746  293    +6.7       
21 09.12.17 200 (Ю) 7000 м  дымка{туман}  10/10 270 м 
[St]
+7.3 +6.4 94 +5  1011.2  -0.7  745  291           
00 10.12.17 200 (Ю) 10 км  {туман}  10/10 720 м 
[Sc]
+6.9 +5.1 88 +5  1010.5  -0.7  745  292           
03 10.12.17 180 (Ю) 10 км    3/3 1000 м 
[Sc]
+6.3 +3.5 82 +4  1009.3  -1.2  744  292           
06 10.12.17 190 (Ю) 10 км    4/4 1000 м 
[Sc]
+6.8 +3.8 81 +4  1008.4  -0.9  743  292  +5.9         
09 10.12.17 180 (Ю) 10 км    9/6 1000 м средняя 
[Sc|Ac trans]
+9.9 +6.7 80 +8  1006.7  -1.5  742  287           
12 10.12.17 170 (Ю) 10 км  в посл. час ливневой дождь  8/8 1000 м кучево-дожд. 
[Cb calv]
+10.1 +7.4 83 +8  1004  -2.6  740  286           
15 10.12.17 170 (Ю) 5000 м  слаб. ливневой дождь  9/9 1000 м кучево-дожд. 
[Cb cap]
+8.3 +5.9 85 +6  1001.8  -2.3  738  288           
18 10.12.17 220 (ЮЗ) 11  10 км  слаб. ливневой дождь  9/9 300 м кучево-дожд. 
[Cb cap]
+5.4 +4.2 92 +2  1000.8  -1.1  737  291    +10.7     
21 10.12.17 240 (ЮЗ) 11  10 км  {ливн. осадки}  9/9 420 м 
[Sc]
+1 -0.7 88 -4  1004  2.8  740  297           
00 11.12.17 260 (З) 10{19}  10 км  слаб. ливневой дождь со снегом  9/9 150 м кучево-дожд. 
[Cb cap]
-0.1 -1.2 92 -5  1008.5  4.4  743  300           
03 11.12.17 260 (З) 10  10 км  {ливн. осадки}  8/8 630 м 
[Sc]
-0.1 -3.8 76 -5  1013.2  4.6  746  301           
06 11.12.17 220 (ЮЗ) 10 км  {ливн. осадки}  8/0 верхняя 
[Ci sp]
-1 -2.9 87 -4  1016.5  3.1  749  303  -1.7    0.7     
09 11.12.17 200 (Ю) 10 км    8/0 средняя, верхняя 
[Ac trans|Ci fib]
+2.2 -1.2 78 -1  1016.2  749  299           
12 11.12.17 210 (ЮЗ) 10 км    9/4 1500 м средняя 
[Sc|Ac trans]
+4.9 +1.9 81 +2  1016.1  749  296           
Время (UTC), дата Ветер
(°,м/с) 
Видим.   Явления Облачность Т
(°С)
Тd
(°С)
f(%) Тe
(°С)
Pmin
(гПа)
dP
(гПа)
Po
(мм)
O2
(г/м3)
Тmin Tmax R s Состояние
почвы

Для получения пояснительной информации подведите курсор к названию столбца.

ПОГОДА в Днепропетровске - архив

Всё, что Вы хотите узнать о погоде в Днепропетровске - удобно и подробно!

Выберите нужную дату (начиная с 1 января 2015* года) и нажмите кнопку "Найти".
Будут отображены архивные сводки погоды по пункту Днепропетровск, начиная с указанной даты.


Отображать данные в формате CSV (для использования в таблицах Excel)


Внимание! Наш архив погоды предназначен исключительно для личного некоммерческого использования в познавательных целях. Если Вам необходимы официальные справки о состоянии погоды (для производственных, юридических, коммерческих и т.п. целей), обращайтесь в органы Росгидромета.

*Примечание: данная дата относится к архиву по метеостанциям СССР (Россия, СНГ, Балтия).
Архив по метеостанциям Зарубежной Европы и Азии (кроме Китая) хранится 10 дней, по другим регионам земного шара (Китай, Африка, Америка, Австралия, Океания) - 1 день.

Днепропетровск - район местоположения метеостанции


Название, широта, долгота, высота метеостанции:
Днепропетровск (Кайдаки) 48.6°ш. 35°д. 143 м над ур. моря [Украина]

Дополнительная информация

В oтличие oт бoльшинства пoгoдных сайтoв мы публикуем пoдрoбную метеoинфoрмацию в детальнoм прoфессиoнальнoм фoрмате.

Характеристики температуры и влажнoсти вoздуха измеряются на высoте 2 м в тени вдали oт зданий и деревьев.
Скoрoсть ветра измеряется на высoте 10 м (на урoвне рoста челoвека скoрoсть ветра ниже в 1.5-2 раза). Если метеoстанция нахoдится в гoрoде или в лесу, тo скoрoсть ветра занижена на 2-4 м/с пo сравнению с oткрытым местoм. Скoрoсть ветра над акватoриями крупных рек и oзёр, а также на вершинах хoлмoв на 2-5 м/с выше, чем в oбычных услoвиях.
Атмoсфернoе давление в разных тoчках местнoсти мoжет значительнo oтличаться oт давления на метеoстанции, в зависимoсти oт услoвий рельефа (при пoдъёме на 10 м давление пoнижается примернo на 1 мм рт.ст.).